Regional Weather Roundup
Issued by NWS

Home | Current Version | Previous Version | Graphics & Text | Print | Product List | Glossary On
Versions: 1 2 3 4 5 6 7 8 9 10 11 12 13 14 15 16 17 18 19 20 21 22 23 24 25 26 27 28 29 30 31 32 33 34 35 36 37 38 39 40 41 42 43 44 45 46 47 48 49 50
000
ASUS43 KLOT 010410
RWRIL

ILLINOIS REGIONAL WEATHER ROUNDUP
NATIONAL WEATHER SERVICE CHICAGO/ROMEOVILLE IL
1000 PM CST SAT FEB 28 2015

NOTE: "FAIR" INDICATES FEW OR NO CLOUDS BELOW 12,000 FEET WITH NO
SIGNIFICANT WEATHER AND/OR OBSTRUCTIONS TO VISIBILITY.

* THESE STATIONS ARE NOT UNDER NWS QUALITY CONTROL. THEY ALSO MAY NOT
  REPORT WEATHER SUCH AS PRECIPITATION OR FOG.

ILZ001-002-007-009-015-016-024-010500-
NORTHWEST ILLINOIS

CITY           SKY/WX    TMP DP  RH WIND       PRES   REMARKS
MOLINE         PTCLDY     9   5  84 E3        30.46F FOG
STERLING*      CLEAR      9   7  92 E3        30.47F
SAVANNA*       LGT SNOW  11   8  87 CALM      30.48S
$$

ILZ003-004-008-010-011-017-018-010500-
NORTH CENTRAL ILLINOIS

CITY           SKY/WX    TMP DP  RH WIND       PRES   REMARKS
ROCKFORD       FLURRIES  14  10  84 SE3       30.49F
FREEPORT*      LGT SNOW  10   7  90 CALM      30.48F
ROCHELLE*      LGT SNOW  11   9  90 SE5       30.48F WCI   3
DE KALB*       LGT SNOW  14  11  88 SE6       30.48S WCI   5
PERU*          CLOUDY    19  17  88 SE7       30.49S WCI  10
$$

ILZ005-006-012>014-019>023-010500-
NORTHEAST ILLINOIS

CITY           SKY/WX    TMP DP  RH WIND       PRES   REMARKS
CHICAGO-OHARE  LGT SNOW  17  14  88 S7        30.49F FOG     WCI   8
CHICAGO-MIDWAY LGT SNOW  20  15  81 SE7       30.50F WCI  11
AURORA         CLOUDY    16  10  77 SE6       30.49F HAZE    WCI   7
LANSING*       LGT SNOW  18  14  85 SE7       30.49F WCI   9
JOLIET*        LGT SNOW  18  15  88 SE3       30.50F
WAUKEGAN       CLOUDY    16  12  84 SW8       30.49F FOG     WCI   5
DUPAGE AIRPORT LGT SNOW  17  13  84 SE5       30.48F FOG     WCI  10
KANKAKEE*      FLURRIES  19  17  91 SE8       30.49F WCI   9
WHEELING       LGT SNOW  18  13  80 S6        30.51F WCI  10
MORRIS*        FLURRIES  18  16  93 SE5       30.49S WCI  11
ROMEOVILLE*    LGT SNOW  17  13  86 SE5       30.49F WCI  10
NORTHERLY ISL    N/A     19  14  81 SE9         N/A  WCI   8
$$

LMZ740>746-010500-
SOUTHERN LAKE MICHIGAN

STATION/POSITION SKY/WX   TEMP    WIND        PRES    VSBY  WAVE
                          AIR SEA DIR/SP/G                  HT/PER
                          (F)     (DEG/KT/KT) (MB)    (MI)  (FT/S)
WAUKEGAN HARBOR            19     210/ 10/ 13   N/A
HARRISON CRIB              19     160/ 13/ 17   N/A
BURNHAM HARBOR             19     180/  7/ 11   N/A
CALUMET HARBOR             18     150/  7/  9 1031.5F
MICHIGAN CITY              18     120/  5/  8   N/A
$$

ILZ025>027-034>036-040-047-049-050-058-095>099-010500-
WEST-CENTRAL ILLINOIS

CITY           SKY/WX    TMP DP  RH WIND       PRES   REMARKS
QUINCY         LGT SNOW  20  18  92 SE5       30.44S FOG     WCI  13
GALESBURG*     FLURRIES  18  17  93 CALM      30.45S
MACOMB*        LGT SNOW  20  19  94 SE7       30.47F WCI  11
JACKSONVILLE*  LGT SNOW  24  21  89 E6        30.46S VSB 1   WCI  16
PITTSFIELD*    LGT SNOW  22  20  91 E5        30.45S WCI  16
$$

ILZ028>032-037-038-041>044-048-051>054-059>061-010500-
CENTRAL ILLINOIS

CITY           SKY/WX    TMP DP  RH WIND       PRES   REMARKS
PONTIAC        FLURRIES  20  18  93 E7        30.49F WCI  11
BLOOMINGTON    LGT SNOW  20  18  92 SE6       30.46F FOG     WCI  12
DECATUR        LGT SNOW  22  19  89 E7        30.46F VSB 1   WCI  13
PEORIA         LGT SNOW  21  16  81 SE7       30.47F WCI  12
LACON*         LGT SNOW  19  16  87 SE3       30.47F
LINCOLN*       LGT SNOW  22  20  91 SE3       30.49F
SPRINGFIELD    LGT SNOW  22  19  89 E5        30.46F FOG     WCI  16
TAYLORVILLE    LGT SNOW  21  19  93 E5        30.46F WCI  15
$$

ILZ033-039-045-046-055>057-062-063-010500-
EAST-CENTRAL ILLINOIS

CITY           SKY/WX    TMP DP  RH WIND       PRES   REMARKS
CHAMPAIGN      LGT SNOW  21  19  92 E9        30.46F VSB 3/4 WCI  11
DANVILLE*      LGT SNOW  20  19  93 SE6       30.45F VSB 3/4 WCI  13
RANTOUL*       LGT SNOW  23  20  91 E7        30.46F WCI  14
MATTOON        LGT SNOW  22  20  92 SE7       30.44F VSB 1   WCI  13
PARIS*         LGT SNOW  22  21  95 CALM      30.47F
$$

ILZ079-100>102-010500-
SOUTHWEST ILLINOIS

CITY           SKY/WX    TMP DP  RH WIND       PRES   REMARKS
ALTON          LGT SNOW  24  23  96 E6        30.46F VSB 1   WCI  17
BELLEVILLE     LGT SNOW  25  25  99 NE3       30.45S FOG
CAHOKIA*       LGT SNOW  26  24  92 E3        30.45F VSB 1
SPARTA*        LGT SNOW  26  25  95 SE3       30.46S
$$

ILZ064>066-069>071-074>076-080>082-084>086-088>090-092>094-010500-
SOUTH-CENTRAL ILLINOIS

CITY           SKY/WX    TMP DP  RH WIND       PRES   REMARKS
CARBONDALE     LGT SNOW  29  23  78 E7        30.45F WCI  22
CAIRO*         CLOUDY    34  23  63 NE8       30.45S WCI  27
EFFINGHAM*     LGT SNOW  24  21  88 E3        30.48F VSB 1
MARION         CLOUDY    32  21  64 E6        30.47S WCI  26
MT. VERNON     CLOUDY    27  21  80 E3        30.46F
CENTRALIA*     LGT SNOW  26  24  91 CALM      30.45F VSB 1
SALEM*         LGT SNOW  27  25  91 CALM      30.46S VSB 3/4
METROPOLIS*    CLOUDY    33  22  63 NE3       30.45S
$$

ILZ067-068-072-073-078-083-087-091-010500-
SOUTHEAST ILLINOIS

CITY           SKY/WX    TMP DP  RH WIND       PRES   REMARKS
LAWRENCEVILLE  LGT SNOW  27  25  92 E7        30.48F VSB 3/4 WCI  19
FLORA*         LGT SNOW  25  24  96 CALM      30.47F VSB 1
FAIRFIELD*     LGT SNOW  27  26  94 E5        30.46F WCI  22
HARRISBURG*    CLOUDY    31  23  70 E5        30.49S WCI  27
ROBINSON*      LGT SNOW  26  25  96 E6        30.49F VSB 1   WCI  19
CARMI*         CLOUDY    32  26  76 NE9       30.48R WCI  24
$$

ABBREVIATIONS USED IN REMARKS
   TC - TEMPERATURE IN CELSIUS
  WCI - WIND CHILL INDEX
   HX - HEAT INDEX
  VSB - VISIBILITY
$$



USA.gov is the U.S. government's official web portal to all federal, state and local government web resources and services.